Regional Weather Roundup
Issued by NWS Portland, ME

Home | Current Version | Previous Version | Text Only | Print | Product List | Glossary On
Versions: 1 2 3 4 5 6 7 8 9 10 11 12 13 14 15 16 17 18 19 20 21 22 23 24 25 26 27 28 29 30 31 32 33 34 35 36 37 38 39 40 41 42 43 44 45 46 47 48 49 50
000
ASUS41 KGYX 171410
RWRGYX
WEATHER ROUNDUP FOR MAINE AND NEW HAMPSHIRE
NATIONAL WEATHER SERVICE GRAY ME
900 AM EST TUE JAN 17 2017

MEZ002-005-006-010-012-015-018-020-021-024-026-027-029-171500-
MAINE

CITY           SKY/WX    TMP DP  RH WIND       PRES   REMARKS
PORTLAND       CLOUDY    31  22  69 W5        30.27R
SANFORD        PTSUNNY   29  21  72 CALM      30.26R
BAR HARBOR     MOSUNNY   33  18  53 N10       30.26R
WISCASSET      CLOUDY    28  22  78 CALM      30.28R
ROCKLAND       CLOUDY    34  24  67 N5        30.26R
FRYEBURG       CLOUDY    19  13  77 CALM      30.25R
LEWISTONAUBURN CLOUDY    20  17  88 CALM      30.26R
AUGUSTA        CLOUDY    29  17  61 N3        30.26R
WATERVILLE     CLOUDY    27  19  72 VRB3      30.23R
BANGOR         PTSUNNY   32  20  61 N3        30.27R
GREENVILLE       N/A     25  17  72 VRB6      30.16R
MILLINOCKET    SUNNY     27  13  55 N8        30.27R
HOULTON        MOSUNNY   24  13  62 N15       30.24R WCI  11
PRESQUE ISLE   SUNNY     18   9  68 N17       30.27R WCI   3
FRENCHVILLE    SUNNY     12   3  67 N16G24    30.23R WCI  -5
CARIBOU        SUNNY     17   7  64 N9        30.26R
$$

NHZ002-005-008-009-011-012-014-171500-
NEW HAMPSHIRE

CITY           SKY/WX    TMP DP  RH WIND       PRES   REMARKS
PORTSMOUTH     CLOUDY    32  18  56 NW5       30.24R
ROCHESTER      CLOUDY    29  17  61 NW6       30.24R
MANCHESTER     PTSUNNY   28  18  66 CALM      30.23S
CONCORD        CLOUDY    23  18  81 CALM      30.25R
LACONIA        CLOUDY    25  19  78 CALM      30.24R
PLYMOUTH       FAIR      19  15  84 CALM      30.24F
BERLIN         CLOUDY    25  17  72 CALM      30.22R
WHITEFIELD     CLOUDY    19  13  77 CALM      30.23R
JAFFREY        CLOUDY    27  19  72 CALM      30.21R
KEENE          CLOUDY    18  16  92 CALM      30.25S
LEBANON        CLOUDY    19  15  84 CALM      30.27R
MT WASHINGTON  PTSUNNY   19  12  73 NW37        N/A  WCI  -1
$$

VTZ005-007-008-171500-
VERMONT

CITY           SKY/WX    TMP DP  RH WIND       PRES   REMARKS
ST JOHNSBURY     N/A     16  12  84 MISG      30.26R
MONTPELIER     CLOUDY    18  15  88 CALM      30.27R
BURLINGTON     CLOUDY    24  18  77 CALM      30.26S
$$

MAZ007-012-024-CTZ003-RIZ002-NYZ038-NYZ072-171500-
SOUTHERN NEW ENGLAND AND NY

CITY           SKY/WX    TMP DP  RH WIND       PRES   REMARKS
BOSTON         PTSUNNY   37  18  46 NW9       30.25R
WORCESTER      MOSUNNY   33  14  45 NE6       30.21R
NANTUCKET      CLOUDY    40  32  73 NW6       30.24R
PROVIDENCE     PTSUNNY   36  25  64 N3        30.25R
HARTFORD       CLOUDY    32  25  75 NE3       30.23R
ALBANY         CLOUDY    24  20  84 N6        30.23F
NEW YORK CITY  CLOUDY    43  30  60 CALM      30.23R
$$

ANZ081-ANZ082-ANZ150-NHZ014-MEZ023>029-171500-
COASTAL MARINE OBSERVATIONS

STATION/POSITION TIME  TEMP    WIND        PRES    WAVE
                       AIR SEA DIR/SP/G            HT/PER
                 (UTC) (F)     (DEG/KT/KT) (MB)    (FT/S)
MOUNT DESERT ROC 1300   37                 1023.4R
MATINICUS ROCK   1300   37      10/ 13/ 15 1023.3R
ISLE OF SHOALS   1300   35     330/ 11/ 12 1023.5R
CASHES LEDGE BUO 1250   41 46  340/ 14/ 17 1023.3    3/ 6
GEORGES BANK BUO 1250   44 44              1021.7    6/ 7
$$

.............KEY..............
   WCI - WIND CHILL
   TC  - TEMPERATURE IN CELSIUS
   VSB - VISIBILITY IN MILES
   HX  - HEAT INDEX
   FAIR- INDICATES FEW OR NO CLOUDS BELOW 12,000 FT, WITH NO
         SIGNIFICANT WEATHER AND/OR OBSTRUCTIONS TO VISIBILITY.






USA.gov is the U.S. government's official web portal to all federal, state and local government web resources and services.